This is the latest recevied weather packets stored in our database for station/object WX4SGA. If no packets are shown the sender has not sent any weather packets the latest 1 day(s).
| Time | Temp. | Humidity | Pressure | Rain* | Wind** | Luminosity | Snow |
|---|---|---|---|---|---|---|---|
| 1778028294 | 22.78° C | 65% | 1015.9 hPa | 0 mm | - | 0 W/m² | - |
| 1778027990 | 22.78° C | 65% | 1015.6 hPa | 0 mm | - | 0 W/m² | - |
| 1778027686 | 23.33° C | 65% | 1015.6 hPa | 0 mm | - | 0 W/m² | - |
| 1778027383 | 23.33° C | 63% | 1015.2 hPa | 0 mm | - | 0 W/m² | - |
| 1778027079 | 23.89° C | 62% | 1015.6 hPa | 0 mm | - | 1 W/m² | - |
| 1778026774 | 23.89° C | 60% | 1015.2 hPa | 0 mm | - | 1 W/m² | - |
| 1778026472 | 24.44° C | 59% | 1015.6 hPa | 0 mm | - | 2 W/m² | - |
| 1778026169 | 25° C | 56% | 1015.6 hPa | 0 mm | - | 3 W/m² | - |
| 1778024958 | 26.11° C | 50% | 1015.2 hPa | 0 mm | - | 16 W/m² | - |
| 1778024352 | 26.67° C | 50% | 1015.2 hPa | 0 mm | - | 23 W/m² | - |
| 1778024050 | 26.67° C | 49% | 1015.2 hPa | 0 mm | - | 25 W/m² | - |
| 1778023747 | 26.67° C | 47% | 1015.2 hPa | 0 mm | - | 26 W/m² | - |
| 1778023445 | 26.67° C | 47% | 1014.9 hPa | 0 mm | - | 31 W/m² | - |
| 1778023141 | 27.22° C | 47% | 1014.9 hPa | 0 mm | - | 32 W/m² | - |
| 1778022839 | 27.22° C | 46% | 1014.9 hPa | 0 mm | - | 35 W/m² | - |
| 1778022234 | 27.22° C | 45% | 1015.2 hPa | 0 mm | - | 43 W/m² | - |
| 1778021323 | 27.78° C | 41% | 1015.2 hPa | 0 mm | - | 64 W/m² | - |
| 1778021021 | 27.78° C | 45% | 1015.2 hPa | 0 mm | - | 76 W/m² | - |
| 1778020718 | 27.78° C | 42% | 1015.2 hPa | 0 mm | - | 86 W/m² | - |
| 1778020110 | 28.33° C | 42% | 1014.9 hPa | 0 mm | - | 66 W/m² | - |
| 1778019504 | 28.89° C | 41% | 1015.2 hPa | 0 mm | - | 116 W/m² | - |
| 1778018293 | 30° C | 40% | 1015.2 hPa | 0 mm | - | 250 W/m² | - |
| 1778014356 | 30° C | 39% | 1015.2 hPa | 0 mm | - | 523 W/m² | - |
| 1778013750 | 30° C | 38% | 1015.2 hPa | 0 mm | - | 548 W/m² | - |
| 1778010718 | 29.44° C | 42% | 1016.3 hPa | 0 mm | - | 684 W/m² | - |
* Rain latest hour (hover to see other rain measurements)
** Current wind speed in m/s (hover to see current wind gust speed)